This demonstration page uses our WeatherBlox Daily Observations layout. Learn more.

Left ArrowRight Arrow

39.01783, -85.05884

Hourly Observations for November 30, 2018

Temp ( °F °C ) Dew Point ( °F °C ) Humidity (%) Winds ( mph kmh ) Pressure ( in mb ) Visibility ( mi km ) Precip ( " mm )
12:52 am 00:52 Cloudy with Mist and Fog 41 5 40 4.4 96 96 SE 5 7 29.88 1012 5 8 0.00 0.03
1:23 am 01:23 Cloudy with Mist and Fog 42 5.6 41 5 96 96 S 7 11 29.91 1013 3 5 0.00 0.00
1:26 am 01:26 Cloudy with Mist and Fog 42 5.6 41 5 96 96 S 6 9 29.91 1013 2 3 0.00 0.00
1:39 am 01:39 Cloudy with Mist and Fog 42 5.6 41 5 96 96 S 5 7 29.91 1013 1 1 0.00 0.00
1:52 am 01:52 Cloudy with Mist and Fog 42 5.6 41 5 96 96 Calm 29.87 1011 1 1 0.00 0.00
2:52 am 02:52 Cloudy with Light Rain 41 5 41 5 100 100 ENE 5 7 29.89 1012 1 1 0.00 0.03
3:52 am 03:52 Cloudy with Drizzle 41 5 41 5 100 100 NNE 6 9 29.88 1012 1 2 0.02 0.51
4:52 am 04:52 Cloudy with Drizzle 41 5 41 5 100 100 NE 3 6 29.88 1012 2 2 0.00 0.03
5:52 am 05:52 Cloudy with Drizzle 42 5.6 42 5.6 100 100 Calm 29.90 1013 1 1 0.01 0.25
6:19 am 06:19 Cloudy with Drizzle 42 5.6 42 5.6 100 100 Calm 29.94 1014 1 1 0.00 0.03
6:52 am 06:52 Cloudy with Drizzle 42 5.6 42 5.6 100 100 N 5 7 29.92 1013 1 1 0.00 0.03
7:13 am 07:13 Cloudy with Mist and Fog 42 5.6 42 5.6 100 100 NNW 3 6 29.97 1015 1 2 0.00 0.03
7:52 am 07:52 Cloudy with Mist and Fog 42 5.6 41 5 96 96 Calm 29.94 1014 2 2 0.00 0.03
8:07 am 08:07 Cloudy with Mist and Fog 42 5.6 42 5.6 100 100 N 3 6 29.97 1015 1 1 0.00 0.00
8:52 am 08:52 Mostly Cloudy with Fog 42 5.6 42 5.6 100 100 Calm 29.97 1015 0 0 0.00 0.00
9:23 am 09:23 Mostly Cloudy with Fog 42 5.6 42 5.6 100 100 NNE 5 7 30.00 1016 0 0 0.00 0.00
9:52 am 09:52 Cloudy with Mist and Fog 44 6.7 44 6.7 100 100 ENE 5 7 29.98 1015 1 1 0.00 0.00
10:52 am 10:52 Cloudy with Mist and Fog 46 7.8 45 7.2 96 96 E 6 9 29.99 1016 1 1 0.00 0.00
11:19 am 11:19 Cloudy with Mist and Fog 46 7.8 45 7.2 96 96 NNE 7 11 30.03 1017 1 2 0.00 0.00
11:52 am 11:52 Cloudy with Mist and Fog 47 8.3 45 7.2 93 93 NE 5 7 29.98 1015 1 2 0.00 0.00
12:42 pm 12:42 Cloudy with Mist and Fog 48 8.9 45 7.2 89 89 Calm 29.97 1015 2 3 0.00 0.00
12:52 pm 12:52 Cloudy with Mist and Fog 48 8.9 46 7.8 93 93 Calm 29.98 1015 2 3 0.00 0.00
1:52 pm 13:52 Cloudy with Mist and Fog 48 8.9 45 7.2 89 89 NNE 5 7 29.98 1015 2 3 0.00 0.00
2:52 pm 14:52 Cloudy with Mist and Fog 48 8.9 45 7.2 89 89 NE 3 6 29.99 1016 2 3 0.00 0.00
3:52 pm 15:52 Cloudy with Mist and Fog 48 8.9 45 7.2 89 89 ESE 3 6 30.00 1016 2 3 0.00 0.00
4:52 pm 16:52 Cloudy with Mist and Fog 47 8.3 45 7.2 93 93 NE 8 13 30.01 1016 2 3 0.00 0.00
5:52 pm 17:52 Cloudy with Mist and Fog 46 7.8 45 7.2 96 96 NE 7 11 30.02 1017 2 3 0.00 0.00
6:22 pm 18:22 Cloudy with Mist and Fog 46 7.8 45 7.2 96 96 ENE 8 13 30.06 1018 4 6 0.00 0.00
6:52 pm 18:52 Cloudy with Mist and Fog 46 7.8 45 7.2 96 96 ENE 9 15 30.03 1017 4 6 0.00 0.00
7:52 pm 19:52 Cloudy with Mist and Fog 46 7.8 44 6.7 93 93 ESE 9 15 30.04 1017 4 6 0.00 0.00
8:52 pm 20:52 Cloudy with Mist and Fog 46 7.8 44 6.7 93 93 ENE 8 13 30.03 1017 6 10 0.00 0.00
8:59 pm 20:59 Cloudy with Mist and Fog 46 7.8 44 6.7 93 93 ENE 8 13 30.06 1018 3 5 0.00 0.00
9:08 pm 21:08 Cloudy with Mist and Fog 45 7.2 44 6.7 97 97 ENE 9 15 30.06 1018 2 2 0.00 0.00
9:23 pm 21:23 Cloudy with Mist and Fog 45 7.2 44 6.7 97 97 ENE 10 17 30.06 1018 2 2 0.00 0.00
9:40 pm 21:40 Cloudy with Mist and Fog 45 7.2 44 6.7 97 97 ENE 10 17 30.06 1018 1 1 0.00 0.00
9:52 pm 21:52 Cloudy with Mist and Fog 45 7.2 44 6.7 97 97 ENE 10 17 30.03 1017 0 0 0.00 0.00
10:52 pm 22:52 Cloudy with Mist and Fog 44 6.7 44 6.7 100 100 E 9 15 30.00 1016 0 0 0.00 0.00
11:18 pm 23:18 Cloudy with Mist and Fog 45 7.2 44 6.7 97 97 ENE 8 13 30.03 1017 2 2 0.00 0.00
11:31 pm 23:31 Cloudy with Mist and Fog 44 6.7 44 6.7 100 100 ENE 12 19 30.03 1017 1 1 0.00 0.00
11:52 pm 23:52 Cloudy with Mist and Fog 44 6.7 43 6.1 96 96 ENE 12 19 30.00 1016 1 2 0.00 0.00

Powered by AerisWeather